User: anonymous   Login
Location: Mason
(37.5237°N, 89.2543°W)
Time: 15:44:13
(UTC+00:00)
Language:

SJ 16-02 - Orbit

View from above orbital plane
View from above orbital plane
View from above satellite
View from above satellite

Ground track
Ground track

The orbit data is extracted from the following two-line orbital elements,

1 41634U 16043A   22146.28187471  .00001090  00000-0  12729-3 0  9999
2 41634  75.0032 188.9726 0006960  24.2762 335.8720 14.86149789320361
Epoch (UTC): 26 May 2022 06:45:53
Eccentricity: 0.0006960
inclination: 75.0032°
perigee height: 605 km
apogee height: 615 km
right ascension of ascending node: 188.9726°
argument of perigee: 24.2762°
revolutions per day: 14.86149789
mean anomaly at epoch: 335.8720°
orbit number at epoch: 32036

The dashed part of the orbit path shows where the satellite is in the earth's shadow,  

DLR